Weather History for Maple Lake, MN

Change the Weather History Date:

Sunday, March 17, 2013

  Actual Average (KSTC) Record (KSTC)
Temperature  
Mean Temperature 14 °F 30 °F  
Max Temperature 27 °F 39 °F 75 °F (2012)
Min Temperature 1 °F 20 °F -14 °F (1993)
Degree Days  
Heating Degree Days 52 35  
Month to date heating degree days 661  
Since 1 July heating degree days 7107  
Cooling Degree Days 0 0  
Month to date cooling degree days 0  
Year to date cooling degree days 0  
Moisture  
Dew Point 6 °F    
Average Humidity 67    
Maximum Humidity 78    
Minimum Humidity 51    
Precipitation  
Precipitation 0.00 in 0.06 in 1.13 in (1897)
Month to date precipitation 0.73  
Year to date precipitation 1.97  
Snow  
Snow 0.00 in 0.30 in 13.00 in (1965)
Month to date snowfall 5.5  
Since 1 July snowfall 39.7  
Snow Depth -    
Sea Level Pressure  
Sea Level Pressure 30.09 in    
Wind  
Wind Speed 7 mph (East)    
Max Wind Speed 16 mph    
Max Gust Speed 21 mph    
Visibility 10 miles    
Events      
T = Trace of Precipitation, MM = Missing Value Source: NWS Daily Summary

Daily Weather History Graph

Daily Weather History Graph

Search for Another Location

Airport:

Trip Planner

Search our weather history database for the weather conditions in past years. The results will help you decide how hot, cold, wet, or windy it might be!

Date:

Astronomy

Mar. 17, 2013 Rise Set
Actual Time 7:24 AM CDT 7:24 PM CDT
Civil Twilight 6:54 AM CDT 7:54 PM CDT
Nautical Twilight 6:20 AM CDT 8:28 PM CDT
Astronomical Twilight 5:45 AM CDT 9:04 PM CDT
Moon 10:22 AM CDT (3/17) 12:48 AM CDT (3/17)
Length of Visible Light 12h 59m
Length of Day
12h 00m
Waxing Crescent, 31% of the Moon is Illuminated
Mar 17
Waxing Crescent
Mar 19
First Quarter
Mar 27
Full
Apr 2
Last Quarter
Apr 10
New

Hourly Weather History & Observations

Time (CDT) Temp. Windchill Dew Point Humidity Pressure Visibility Wind Dir Wind Speed Gust Speed Precip Events Conditions
12:16 AM 7.7 °F -2.4 °F 0.1 °F 71% 30.25 in 10.0 mi NW 5.8 mph - N/A   Clear
12:35 AM 7.2 °F -1.5 °F -0.0 °F 72% 30.25 in 10.0 mi NNW 4.6 mph - N/A   Clear
12:56 AM 6.8 °F -2.0 °F -0.4 °F 72% 30.25 in 10.0 mi NNW 4.6 mph - N/A   Clear
1:16 AM 5.9 °F -4.5 °F -0.6 °F 75% 30.25 in 10.0 mi NNW 5.8 mph - N/A   Clear
1:35 AM 5.9 °F -3.0 °F -0.8 °F 74% 30.25 in 10.0 mi North 4.6 mph - N/A   Clear
1:56 AM 5.9 °F -5.8 °F -0.9 °F 73% 30.26 in 10.0 mi North 6.9 mph - N/A   Clear
2:16 AM 5.5 °F -3.4 °F -1.3 °F 73% 30.26 in 10.0 mi North 4.6 mph - N/A   Clear
2:36 AM 5.2 °F -1.9 °F -1.5 °F 74% 30.26 in 10.0 mi North 3.5 mph - N/A   Clear
2:56 AM 4.8 °F -4.3 °F -1.7 °F 75% 30.26 in 10.0 mi North 4.6 mph - N/A   Clear
3:15 AM 4.3 °F -2.9 °F -1.8 °F 76% 30.26 in 10.0 mi North 3.5 mph - N/A   Clear
3:36 AM 3.7 °F -3.6 °F -2.2 °F 76% 30.24 in 10.0 mi North 3.5 mph - N/A   Clear
3:43 AM 3.2 °F -6.2 °F -2.2 °F 78% 30.24 in 10.0 mi NNE 4.6 mph - N/A   Clear
4:05 AM 3.2 °F -4.2 °F -2.2 °F 78% 30.23 in 10.0 mi NNE 3.5 mph - N/A   Clear
4:45 AM 3.2 °F - -2.2 °F 78% 30.23 in 10.0 mi Calm Calm - N/A   Clear
5:25 AM 1.4 °F -6.2 °F -4.0 °F 78% 30.24 in 10.0 mi NNE 3.5 mph - N/A   Clear
5:45 AM 1.4 °F -6.2 °F -4.0 °F 78% 30.24 in 10.0 mi NNE 3.5 mph - N/A   Clear
6:05 AM 1.4 °F -6.2 °F -4.0 °F 78% 30.24 in 10.0 mi NNE 3.5 mph - N/A   Clear
6:25 AM 1.4 °F -6.2 °F -4.0 °F 78% 30.24 in 10.0 mi NNE 3.5 mph - N/A   Clear
6:45 AM 1.4 °F -8.3 °F -4.0 °F 78% 30.23 in 10.0 mi NE 4.6 mph - N/A   Clear
7:05 AM 1.4 °F -8.3 °F -4.0 °F 78% 30.22 in 10.0 mi NE 4.6 mph - N/A   Clear
7:25 AM 1.4 °F -6.2 °F -4.0 °F 78% 30.22 in 10.0 mi NE 3.5 mph - N/A   Clear
7:45 AM 1.4 °F -6.2 °F -4.0 °F 78% 30.20 in 10.0 mi ENE 3.5 mph - N/A   Clear
8:16 AM 2.5 °F -11.1 °F -3.1 °F 78% 30.19 in 10.0 mi ENE 8.1 mph - N/A   Clear
8:36 AM 4.1 °F -6.7 °F -2.4 °F 75% 30.20 in 10.0 mi East 5.8 mph - N/A   Clear
8:55 AM 5.0 °F -6.9 °F -2.2 °F 72% 30.20 in 10.0 mi East 6.9 mph - N/A   Clear
9:16 AM 6.8 °F -4.8 °F -1.5 °F 69% 30.20 in 10.0 mi East 6.9 mph - N/A   Clear
9:36 AM 7.9 °F -5.5 °F -1.1 °F 67% 30.20 in 10.0 mi ESE 9.2 mph - N/A   Clear
9:56 AM 9.5 °F -3.5 °F -0.4 °F 64% 30.19 in 10.0 mi East 9.2 mph - N/A   Clear
10:15 AM 10.8 °F -2.8 °F 0.5 °F 63% 30.18 in 10.0 mi East 10.4 mph - N/A   Clear
10:36 AM 12.0 °F -1.3 °F 1.4 °F 62% 30.18 in 10.0 mi ESE 10.4 mph 16.1 mph N/A   Mostly Cloudy
11:16 AM 15.4 °F 5.6 °F 3.9 °F 60% 30.17 in 10.0 mi SE 6.9 mph - N/A   Overcast
11:36 AM 17.6 °F 6.4 °F 4.8 °F 57% 30.16 in 10.0 mi SE 9.2 mph - N/A   Overcast
11:56 AM 18.1 °F 7.9 °F 5.5 °F 58% 30.15 in 10.0 mi SE 8.1 mph - N/A   Overcast
12:16 PM 18.9 °F 9.8 °F 6.1 °F 58% 30.14 in 10.0 mi SE 6.9 mph - N/A   Mostly Cloudy
12:35 PM 20.1 °F 9.5 °F 6.6 °F 56% 30.14 in 10.0 mi SSE 9.2 mph - N/A   Mostly Cloudy
12:56 PM 21.0 °F 10.6 °F 7.2 °F 55% 30.13 in 10.0 mi SSE 9.2 mph - N/A   Overcast
1:15 PM 21.0 °F 11.4 °F 7.5 °F 56% 30.12 in 10.0 mi SE 8.1 mph - N/A   Overcast
1:35 PM 21.0 °F 10.6 °F 8.1 °F 57% 30.10 in 10.0 mi SE 9.2 mph - N/A   Overcast
1:56 PM 23.0 °F 13.9 °F 8.2 °F 53% 30.09 in 10.0 mi ESE 8.1 mph - N/A   Overcast
2:16 PM 23.9 °F 14.2 °F 9.0 °F 53% 30.07 in 10.0 mi ESE 9.2 mph - N/A   Overcast
2:35 PM 24.3 °F 14.6 °F 9.9 °F 54% 30.05 in 10.0 mi ESE 9.2 mph 16.1 mph N/A   Overcast
2:55 PM 25.0 °F 14.2 °F 10.2 °F 54% 30.03 in 10.0 mi ESE 11.5 mph 16.1 mph N/A   Overcast
3:16 PM 25.3 °F 12.6 °F 9.9 °F 52% 30.01 in 10.0 mi ESE 16.1 mph 20.7 mph N/A   Mostly Cloudy
3:36 PM 26.4 °F 16.0 °F 10.4 °F 51% 30.00 in 10.0 mi SE 11.5 mph - N/A   Mostly Cloudy
3:55 PM 25.7 °F 16.4 °F 10.6 °F 53% 29.99 in 10.0 mi ESE 9.2 mph 16.1 mph N/A   Overcast
4:16 PM 26.1 °F 16.2 °F 11.7 °F 55% 30.00 in 10.0 mi East 10.4 mph - N/A   Overcast
4:36 PM 26.6 °F 18.2 °F 11.7 °F 53% 29.98 in 10.0 mi ESE 8.1 mph - N/A   Overcast
4:56 PM 25.7 °F 15.1 °F 11.7 °F 55% 29.97 in 10.0 mi SE 11.5 mph - N/A   Overcast
5:16 PM 25.7 °F 16.4 °F 12.4 °F 57% 29.97 in 10.0 mi SE 9.2 mph - N/A   Overcast
5:36 PM 25.7 °F 16.4 °F 12.9 °F 58% 29.97 in 10.0 mi SE 9.2 mph - N/A   Overcast
5:55 PM 25.7 °F 14.6 °F 12.7 °F 58% 29.94 in 10.0 mi ESE 12.7 mph 18.4 mph N/A   Overcast
6:16 PM 25.3 °F 14.7 °F 13.6 °F 61% 29.94 in 10.0 mi SE 11.5 mph 18.4 mph N/A   Overcast
6:36 PM 25.0 °F 13.1 °F 13.6 °F 62% 29.93 in 10.0 mi ESE 13.8 mph 18.4 mph N/A   Overcast
6:55 PM 24.8 °F 12.9 °F 13.8 °F 63% 29.91 in 10.0 mi ESE 13.8 mph 17.3 mph N/A   Overcast
7:16 PM 25.0 °F 14.2 °F 13.8 °F 63% 29.91 in 10.0 mi ESE 11.5 mph 19.6 mph N/A   Overcast
7:35 PM 25.2 °F 15.7 °F 14.2 °F 63% 29.90 in 10.0 mi ESE 9.2 mph 20.7 mph N/A   Overcast
7:56 PM 25.2 °F 15.1 °F 14.5 °F 64% 29.91 in 10.0 mi ESE 10.4 mph - N/A   Overcast
8:16 PM 25.0 °F 15.5 °F 14.7 °F 65% 29.90 in 10.0 mi SE 9.2 mph 16.1 mph N/A   Overcast
8:36 PM 24.8 °F 15.3 °F 14.7 °F 66% 29.89 in 10.0 mi ESE 9.2 mph 16.1 mph N/A   Overcast
8:55 PM 25.0 °F 15.5 °F 15.3 °F 67% 29.90 in 10.0 mi SE 9.2 mph - N/A   Overcast
9:16 PM 25.2 °F 15.7 °F 15.6 °F 67% 29.90 in 10.0 mi SE 9.2 mph - N/A   Overcast
9:56 PM 25.3 °F 16.7 °F 16.3 °F 69% 29.87 in 10.0 mi SE 8.1 mph - N/A   Overcast
10:16 PM 25.3 °F 16.0 °F 16.3 °F 69% 29.87 in 10.0 mi SE 9.2 mph - N/A   Overcast
10:35 PM 25.7 °F 17.1 °F 16.7 °F 69% 29.87 in 10.0 mi SE 8.1 mph - N/A   Overcast
10:56 PM 25.7 °F 16.4 °F 17.1 °F 70% 29.85 in 10.0 mi SE 9.2 mph - N/A   Overcast
11:16 PM 26.1 °F 16.2 °F 18.1 °F 72% 29.85 in 10.0 mi SE 10.4 mph 16.1 mph N/A   Overcast
11:36 PM 26.4 °F 15.0 °F 19.2 °F 74% 29.83 in 10.0 mi SE 13.8 mph 20.7 mph N/A   Overcast
11:55 PM 26.4 °F 16.6 °F 20.1 °F 77% 29.82 in 10.0 mi SE 10.4 mph 19.6 mph N/A   Overcast